,,,PA_Meas_PMT16A,,PR_Meas_QMR101_102,,RH_Meas_QMH101,,SR_Meas_QMS101,,TA_Meas_QMH101,,GenWind,,GenWind,
date,time,status,PA,status,PR,status,RH,status,SR,status,TA,status,DirAvg,status,SpdAvg,
2008-07-30, 06:29:04,VALID,1004.77,VALID,0,VALID,95.9027,VALID,54.0023,VALID,23.5478,VALID,317,VALID,0.770703,
2008-07-30, 06:30:04,VALID,1004.77,VALID,0.5,VALID,95.9866,VALID,60.9411,VALID,23.5673,VALID,359,VALID,0.535156,
2008-07-30, 06:31:04,VALID,1004.73,VALID,0,VALID,96.0018,VALID,65.2654,VALID,23.608,VALID,316,VALID,0.437109,
2008-07-30, 06:32:04,VALID,1004.69,VALID,0,VALID,96.0323,VALID,68.0811,VALID,23.6062,VALID,294,VALID,1.15664,
2008-07-30, 06:33:04,VALID,1004.7,VALID,0.5,VALID,96.0629,VALID,69.1873,VALID,23.6452,VALID,300,VALID,0.300781,
2008-07-30, 06:34:04,VALID,1004.68,VALID,0,VALID,96.1163,VALID,70.6957,VALID,23.6646,VALID,251,VALID,0.349219,
2008-07-30, 06:35:04,VALID,1004.66,VALID,0,VALID,96.1163,VALID,70.9974,VALID,23.7035,VALID,249,VALID,0.448047,
2008-07-30, 06:36:04,VALID,1004.67,VALID,0,VALID,96.1163,VALID,73.3104,VALID,23.7035,VALID,210,VALID,0.717188,
2008-07-30, 06:37:04,VALID,1004.64,VALID,0,VALID,96.1163,VALID,74.316,VALID,23.723,VALID,221,VALID,0.473828,
2008-07-30, 06:38:04,VALID,1004.67,VALID,0,VALID,96.0934,VALID,75.1205,VALID,23.723,VALID,195,VALID,0.650391,
2008-07-30, 06:39:04,VALID,1004.68,VALID,0,VALID,96.101,VALID,75.3216,VALID,23.7443,VALID,190,VALID,0.299609,
2008-07-30, 06:40:04,VALID,1004.67,VALID,0,VALID,96.0857,VALID,76.3273,VALID,23.7035,VALID,213,VALID,0.646875,
2008-07-30, 06:41:04,VALID,1004.67,VALID,0.5,VALID,96.0934,VALID,77.4335,VALID,23.723,VALID,239,VALID,0.366797,
2008-07-30, 06:42:04,VALID,1004.69,VALID,0,VALID,96.1163,VALID,79.3442,VALID,23.7637,VALID,240,VALID,0,
2008-07-30, 06:43:04,VALID,1004.68,VALID,0,VALID,96.1315,VALID,82.3611,VALID,23.7619,VALID,240,VALID,0.317187,
2008-07-30, 06:44:04,VALID,1004.72,VALID,0,VALID,96.1315,VALID,82.2605,VALID,23.7637,VALID,220,VALID,0.156641,
2008-07-30, 06:45:04,VALID,1004.73,VALID,0,VALID,96.1163,VALID,83.065,VALID,23.7637,VALID,220,VALID,0.0960938,
2008-07-30, 06:46:04,VALID,1004.76,VALID,0,VALID,96.1315,VALID,83.9701,VALID,23.7637,VALID,141,VALID,0.503906,
2008-07-30, 06:47:04,VALID,1004.76,VALID,0,VALID,96.1468,VALID,84.674,VALID,23.8027,VALID,133,VALID,0.489453,
2008-07-30, 06:48:04,VALID,1004.75,VALID,0,VALID,96.1773,VALID,85.2774,VALID,23.8027,VALID,124,VALID,0.551953,
2008-07-30, 06:49:04,VALID,1004.77,VALID,0,VALID,96.1468,VALID,94.8309,VALID,23.7619,VALID,119,VALID,0.379687,
2008-07-30, 06:50:04,VALID,1004.75,VALID,0,VALID,96.1773,VALID,101.166,VALID,23.8027,VALID,119,VALID,0.159375,
2008-07-30, 06:51:04,VALID,1004.74,VALID,0,VALID,96.1849,VALID,95.8365,VALID,23.8611,VALID,101,VALID,0.425391,
2008-07-30, 06:52:04,VALID,1004.73,VALID,0,VALID,96.2231,VALID,89.1993,VALID,23.9,VALID,79,VALID,0.158594,
2008-07-30, 06:53:04,VALID,1004.73,VALID,0,VALID,96.2383,VALID,87.9926,VALID,23.9584,VALID,79,VALID,0,
2008-07-30, 06:54:04,VALID,1004.71,VALID,0,VALID,96.2307,VALID,87.6909,VALID,23.9371,VALID,79,VALID,0.187891,
2008-07-30, 06:55:04,VALID,1004.69,VALID,0,VALID,96.2231,VALID,88.2943,VALID,23.9779,VALID,79,VALID,0.0078125,
2008-07-30, 06:56:04,VALID,1004.69,VALID,0,VALID,96.2078,VALID,88.7971,VALID,23.9779,VALID,79,VALID,0.162109,
2008-07-30, 06:57:04,VALID,1004.68,VALID,0,VALID,96.1926,VALID,89.4005,VALID,23.9371,VALID,79,VALID,0,
2008-07-30, 06:58:04,VALID,1004.69,VALID,0,VALID,96.2078,VALID,89.6016,VALID,23.9566,VALID,79,VALID,0,
2008-07-30, 06:59:04,VALID,1004.65,VALID,0,VALID,96.1773,VALID,88.4954,VALID,23.9779,VALID,79,VALID,0,
2008-07-30, 07:00:04,VALID,1004.66,VALID,0,VALID,96.1849,VALID,87.4898,VALID,23.9584,VALID,79,VALID,0,
2008-07-30, 07:01:04,VALID,1004.65,VALID,0,VALID,96.1849,VALID,86.283,VALID,23.9195,VALID,79,VALID,0.253516,
2008-07-30, 07:02:04,VALID,1004.66,VALID,0,VALID,96.1773,VALID,84.9757,VALID,23.9195,VALID,79,VALID,0.298047,
2008-07-30, 07:03:04,VALID,1004.61,VALID,0,VALID,96.1926,VALID,83.4672,VALID,23.9584,VALID,79,VALID,0.333203,
2008-07-30, 07:04:04,VALID,1004.62,VALID,0,VALID,96.1926,VALID,82.3611,VALID,23.9566,VALID,79,VALID,0.09375,
2008-07-30, 07:05:04,VALID,1004.63,VALID,0,VALID,96.1926,VALID,81.3554,VALID,23.9973,VALID,79,VALID,0.192969,
2008-07-30, 07:06:04,VALID,1004.62,VALID,0,VALID,96.2231,VALID,79.7464,VALID,23.9973,VALID,79,VALID,0.244141,
2008-07-30, 07:07:04,VALID,1004.62,VALID,0,VALID,96.2078,VALID,78.6402,VALID,23.9779,VALID,79,VALID,0.260547,
2008-07-30, 07:08:04,VALID,1004.6,VALID,0,VALID,96.2002,VALID,77.534,VALID,23.9779,VALID,79,VALID,0.301172,
2008-07-30, 07:09:04,VALID,1004.6,VALID,0,VALID,96.1926,VALID,76.5284,VALID,23.9584,VALID,79,VALID,0.403906,
2008-07-30, 07:10:04,VALID,1004.61,VALID,0,VALID,96.2078,VALID,76.4278,VALID,23.9992,VALID,79,VALID,0.177344,
2008-07-30, 07:11:04,VALID,1004.6,VALID,0,VALID,96.2154,VALID,77.2323,VALID,23.9779,VALID,79,VALID,0.145703,
2008-07-30, 07:12:04,VALID,1004.59,VALID,0,VALID,96.2078,VALID,79.6459,VALID,23.9566,VALID,53,VALID,0.267578,
2008-07-30, 07:13:04,VALID,1004.6,VALID,0,VALID,96.2307,VALID,79.7464,VALID,23.9973,VALID,53,VALID,0.0410156,
2008-07-30, 07:14:04,VALID,1004.58,VALID,0,VALID,96.2154,VALID,83.7689,VALID,23.9779,VALID,47,VALID,0.250781,
2008-07-30, 07:15:04,VALID,1004.57,VALID,0,VALID,96.1697,VALID,77.3329,VALID,23.9584,VALID,45,VALID,0.457422,
2008-07-30, 07:16:04,VALID,1004.58,VALID,0,VALID,96.2078,VALID,76.8301,VALID,23.9584,VALID,45,VALID,0.187891,
2008-07-30, 07:17:04,VALID,1004.58,VALID,0,VALID,96.1849,VALID,75.925,VALID,23.9584,VALID,19,VALID,0.386719,
2008-07-30, 07:18:04,VALID,1004.61,VALID,0,VALID,96.2002,VALID,76.3273,VALID,23.9779,VALID,19,VALID,0.263672,
2008-07-30, 07:19:04,VALID,1004.61,VALID,0,VALID,96.2078,VALID,78.5397,VALID,23.9973,VALID,19,VALID,0.0988281,
2008-07-30, 07:20:04,VALID,1004.57,VALID,0,VALID,96.2307,VALID,82.3611,VALID,24.0363,VALID,19,VALID,0.145313,
2008-07-30, 07:21:04,VALID,1004.59,VALID,0,VALID,96.2612,VALID,107.703,VALID,24.0752,VALID,19,VALID,0.119531,
2008-07-30, 07:22:04,VALID,1004.61,VALID,0,VALID,96.2688,VALID,120.676,VALID,24.1123,VALID,19,VALID,0.235156,
2008-07-30, 07:23:04,VALID,1004.63,VALID,0,VALID,96.2536,VALID,95.3337,VALID,24.1336,VALID,19,VALID,0.0425781,
2008-07-30, 07:24:04,VALID,1004.65,VALID,0,VALID,96.2688,VALID,95.5348,VALID,24.1336,VALID,19,VALID,0.00585938,
2008-07-30, 07:25:04,VALID,1004.7,VALID,0,VALID,96.246,VALID,115.346,VALID,24.1744,VALID,19,VALID,0.149219,
2008-07-30, 07:26:04,VALID,1004.71,VALID,0,VALID,96.2536,VALID,120.776,VALID,24.2328,VALID,19,VALID,0,
2008-07-30, 07:27:04,VALID,1004.77,VALID,0,VALID,96.2841,VALID,85.0762,VALID,24.2486,VALID,19,VALID,0,
2008-07-30, 07:28:04,VALID,1004.82,VALID,0,VALID,96.246,VALID,82.8639,VALID,24.231,VALID,19,VALID,0.135156,
2008-07-30, 07:29:04,VALID,1004.83,VALID,0,VALID,96.2307,VALID,82.7633,VALID,24.2328,VALID,19,VALID,0,
2008-07-30, 07:30:04,VALID,1004.89,VALID,0,VALID,96.2231,VALID,83.8695,VALID,24.2115,VALID,19,VALID,0,
2008-07-30, 07:31:04,VALID,1004.93,VALID,0,VALID,96.2231,VALID,85.8808,VALID,24.231,VALID,19,VALID,0.00820312,
2008-07-30, 07:32:04,VALID,1004.93,VALID,0,VALID,96.2383,VALID,88.2943,VALID,24.2504,VALID,19,VALID,0.116406,
2008-07-30, 07:33:04,VALID,1004.98,VALID,0,VALID,96.2688,VALID,90.7078,VALID,24.2486,VALID,19,VALID,0.123047,
2008-07-30, 07:34:04,VALID,1005,VALID,0,VALID,96.2536,VALID,92.9202,VALID,24.3302,VALID,351,VALID,0.0832031,
2008-07-30, 07:35:04,VALID,1005.01,VALID,0,VALID,96.3146,VALID,95.4342,VALID,24.3673,VALID,352,VALID,0,
2008-07-30, 07:36:04,VALID,1005.03,VALID,0,VALID,96.2841,VALID,97.7472,VALID,24.4451,VALID,351,VALID,0.16875,
2008-07-30, 07:37:04,VALID,1005.03,VALID,0,VALID,96.2841,VALID,100.563,VALID,24.4841,VALID,333,VALID,0.0335938,
2008-07-30, 07:38:04,VALID,1005.06,VALID,0,VALID,96.2231,VALID,103.68,VALID,24.4451,VALID,297,VALID,0.925391,
2008-07-30, 07:39:04,VALID,1005.04,VALID,0,VALID,96.1544,VALID,107.2,VALID,24.408,VALID,301,VALID,0.932813,
2008-07-30, 07:40:04,VALID,1005.07,VALID,0,VALID,96.1773,VALID,111.122,VALID,24.3478,VALID,281,VALID,0.655078,
2008-07-30, 07:41:04,VALID,1005.07,VALID,0,VALID,96.1773,VALID,115.245,VALID,24.3478,VALID,286,VALID,0.348437,
2008-07-30, 07:42:04,VALID,1005.09,VALID,0,VALID,96.1849,VALID,118.966,VALID,24.4062,VALID,277,VALID,0.165625,
2008-07-30, 07:43:04,VALID,1005.09,VALID,0,VALID,96.2002,VALID,123.29,VALID,24.4257,VALID,277,VALID,0.180859,
2008-07-30, 07:44:04,VALID,1005.12,VALID,0,VALID,96.2002,VALID,128.117,VALID,24.4646,VALID,277,VALID,0.0785156,
2008-07-30, 07:45:04,VALID,1005.14,VALID,0,VALID,96.2231,VALID,133.346,VALID,24.523,VALID,276,VALID,0.146484,
2008-07-30, 07:46:04,VALID,1005.18,VALID,0,VALID,96.1849,VALID,138.274,VALID,24.5035,VALID,290,VALID,0.477734,
2008-07-30, 07:47:04,VALID,1005.2,VALID,0,VALID,96.1544,VALID,142.297,VALID,24.4646,VALID,318,VALID,0.414063,
2008-07-30, 07:48:04,VALID,1005.25,VALID,0,VALID,96.1392,VALID,147.023,VALID,24.4665,VALID,289,VALID,0.791016,
2008-07-30, 07:49:04,VALID,1005.3,VALID,0,VALID,96.1163,VALID,152.152,VALID,24.4451,VALID,283,VALID,0.965625,
2008-07-30, 07:50:04,VALID,1005.33,VALID,0,VALID,96.0934,VALID,158.186,VALID,24.4062,VALID,292,VALID,0.736719,
2008-07-30, 07:51:04,VALID,1005.33,VALID,0,VALID,96.1163,VALID,164.722,VALID,24.4062,VALID,289,VALID,0.716016,
2008-07-30, 07:52:04,VALID,1005.36,VALID,0,VALID,96.162,VALID,171.862,VALID,24.4822,VALID,306,VALID,0.450781,
2008-07-30, 07:53:04,VALID,1005.4,VALID,0,VALID,96.1468,VALID,178.7,VALID,24.5425,VALID,297,VALID,0.447656,
2008-07-30, 07:54:04,VALID,1005.41,VALID,0,VALID,96.0857,VALID,184.332,VALID,24.523,VALID,285,VALID,0.748438,
2008-07-30, 07:55:04,VALID,1005.44,VALID,0,VALID,96.1773,VALID,189.159,VALID,24.5796,VALID,287,VALID,0.462891,
2008-07-30, 07:56:04,VALID,1005.45,VALID,0,VALID,96.1697,VALID,192.276,VALID,24.6788,VALID,337,VALID,0.361719,
2008-07-30, 07:57:04,VALID,1005.48,VALID,0,VALID,96.1544,VALID,194.489,VALID,24.7567,VALID,282,VALID,0.471875,
2008-07-30, 07:58:04,VALID,1005.5,VALID,0,VALID,96.1315,VALID,197.606,VALID,24.7353,VALID,294,VALID,0.589453,
2008-07-30, 07:59:04,VALID,1005.51,VALID,0,VALID,96.0857,VALID,200.523,VALID,24.6983,VALID,289,VALID,1.28164,
2008-07-30, 08:00:04,VALID,1005.55,VALID,0,VALID,96.0171,VALID,202.333,VALID,24.638,VALID,290,VALID,1.23125,
2008-07-30, 08:01:04,VALID,1005.56,VALID,0,VALID,96.0247,VALID,202.433,VALID,24.638,VALID,307,VALID,0.800781,
2008-07-30, 08:02:04,VALID,1005.55,VALID,0,VALID,96.0171,VALID,203.741,VALID,24.6593,VALID,294,VALID,0.332031,
2008-07-30, 08:03:04,VALID,1005.55,VALID,0,VALID,96.0629,VALID,205.249,VALID,24.7353,VALID,286,VALID,0.401563,
2008-07-30, 08:04:04,VALID,1005.53,VALID,0,VALID,96.0629,VALID,206.556,VALID,24.8327,VALID,327,VALID,0.307422,
2008-07-30, 08:05:04,VALID,1005.54,VALID,0,VALID,96.0171,VALID,207.763,VALID,24.8346,VALID,291,VALID,1.1832,
2008-07-30, 08:06:04,VALID,1005.53,VALID,0,VALID,96.0095,VALID,208.97,VALID,24.854,VALID,286,VALID,0.81875,
2008-07-30, 08:07:04,VALID,1005.55,VALID,0,VALID,96.0018,VALID,209.271,VALID,24.8911,VALID,293,VALID,1.00586,
2008-07-30, 08:08:04,VALID,1005.54,VALID,0,VALID,96.0476,VALID,207.864,VALID,25.0098,VALID,274,VALID,0.0773437,
2008-07-30, 08:09:04,VALID,1005.53,VALID,0,VALID,96.0781,VALID,202.936,VALID,25.1286,VALID,271,VALID,0.214844,
2008-07-30, 08:10:04,VALID,1005.53,VALID,0,VALID,96.0705,VALID,193.282,VALID,25.2046,VALID,270,VALID,0.302344,
2008-07-30, 08:11:04,VALID,1005.53,VALID,0,VALID,96.0171,VALID,182.019,VALID,25.1851,VALID,269,VALID,0.197266,
2008-07-30, 08:12:04,VALID,1005.54,VALID,0,VALID,95.9637,VALID,171.862,VALID,25.1656,VALID,305,VALID,0.584766,
2008-07-30, 08:13:04,VALID,1005.55,VALID,0,VALID,95.9103,VALID,164.219,VALID,25.0877,VALID,313,VALID,0.204688,
2008-07-30, 08:14:04,VALID,1005.53,VALID,0,VALID,95.8264,VALID,160.297,VALID,25.0877,VALID,311,VALID,0.742969,
2008-07-30, 08:15:04,VALID,1005.55,VALID,0,VALID,95.7959,VALID,158.085,VALID,25.0488,VALID,304,VALID,0.239844,
2008-07-30, 08:16:04,VALID,1005.57,VALID,0,VALID,95.8111,VALID,156.778,VALID,25.0488,VALID,303,VALID,0.0183594,
2008-07-30, 08:17:04,VALID,1005.54,VALID,0,VALID,95.7272,VALID,155.269,VALID,25.0274,VALID,298,VALID,0.349219,
2008-07-30, 08:18:04,VALID,1005.56,VALID,0,VALID,95.7501,VALID,152.956,VALID,25.0293,VALID,247,VALID,0.370313,
2008-07-30, 08:19:04,VALID,1005.55,VALID,0,VALID,95.7348,VALID,149.939,VALID,25.0293,VALID,274,VALID,0.318359,
2008-07-30, 08:20:04,VALID,1005.56,VALID,0,VALID,95.8187,VALID,147.023,VALID,25.1072,VALID,272,VALID,0.216406,
2008-07-30, 08:21:04,VALID,1005.55,VALID,0,VALID,95.8569,VALID,145.313,VALID,25.1461,VALID,275,VALID,0.466016,
2008-07-30, 08:22:04,VALID,1005.56,VALID,0,VALID,95.8187,VALID,145.012,VALID,25.1267,VALID,276,VALID,0.291016,
2008-07-30, 08:23:04,VALID,1005.54,VALID,0,VALID,95.7348,VALID,144.71,VALID,25.1091,VALID,276,VALID,0.189844,
2008-07-30, 08:24:04,VALID,1005.54,VALID,0,VALID,95.6204,VALID,145.313,VALID,25.0488,VALID,299,VALID,1.12188,
2008-07-30, 08:25:04,VALID,1005.54,VALID,0,VALID,95.3915,VALID,147.023,VALID,24.9709,VALID,288,VALID,0.982422,
2008-07-30, 08:26:04,VALID,1005.55,VALID,0,VALID,95.3534,VALID,151.548,VALID,25.0312,VALID,295,VALID,0.928125,
2008-07-30, 08:27:04,VALID,1005.58,VALID,0,VALID,95.4068,VALID,155.269,VALID,24.9904,VALID,308,VALID,0.296094,
2008-07-30, 08:28:04,VALID,1005.56,VALID,0,VALID,95.5136,VALID,158.186,VALID,25.0488,VALID,288,VALID,0.658594,
2008-07-30, 08:29:04,VALID,1005.54,VALID,0,VALID,95.5365,VALID,161.202,VALID,25.0682,VALID,283,VALID,0.209375,
2008-07-30, 08:30:04,VALID,1005.53,VALID,0,VALID,95.5746,VALID,163.716,VALID,25.1091,VALID,162,VALID,0.443359,
2008-07-30, 08:31:04,VALID,1005.55,VALID,0,VALID,95.6433,VALID,165.627,VALID,25.1267,VALID,162,VALID,0,
2008-07-30, 08:32:04,VALID,1005.54,VALID,0,VALID,95.4144,VALID,165.728,VALID,25.0877,VALID,162,VALID,0.438281,
2008-07-30, 08:33:04,VALID,1005.56,VALID,0,VALID,95.5517,VALID,165.828,VALID,25.148,VALID,162,VALID,0.0390625,
2008-07-30, 08:34:04,VALID,1005.59,VALID,0,VALID,95.4373,VALID,166.834,VALID,25.1072,VALID,162,VALID,0.174219,
2008-07-30, 08:35:04,VALID,1005.57,VALID,0,VALID,95.3152,VALID,168.544,VALID,25.0488,VALID,162,VALID,0.269531,
2008-07-30, 08:36:04,VALID,1005.61,VALID,0,VALID,95.506,VALID,168.342,VALID,25.0682,VALID,162,VALID,0.310156,
2008-07-30, 08:37:04,VALID,1005.6,VALID,0,VALID,95.6585,VALID,170.253,VALID,25.1656,VALID,162,VALID,0,
2008-07-30, 08:38:04,VALID,1005.6,VALID,0,VALID,95.7119,VALID,173.27,VALID,25.224,VALID,162,VALID,0.116016,
2008-07-30, 08:39:04,VALID,1005.6,VALID,0,VALID,95.7272,VALID,174.276,VALID,25.2416,VALID,162,VALID,0,
2008-07-30, 08:40:04,VALID,1005.61,VALID,0,VALID,95.6662,VALID,176.186,VALID,25.3039,VALID,162,VALID,0.292578,
2008-07-30, 08:41:04,VALID,1005.61,VALID,0,VALID,95.6509,VALID,178.901,VALID,25.2825,VALID,162,VALID,0.267969,
2008-07-30, 08:42:04,VALID,1005.62,VALID,0,VALID,95.567,VALID,182.522,VALID,25.3019,VALID,162,VALID,0.29375,
2008-07-30, 08:43:04,VALID,1005.6,VALID,0,VALID,95.3763,VALID,186.142,VALID,25.2825,VALID,162,VALID,0.297266,
2008-07-30, 08:44:04,VALID,1005.61,VALID,0,VALID,95.3457,VALID,191.371,VALID,25.3039,VALID,162,VALID,0.474219,
2008-07-30, 08:45:04,VALID,1005.63,VALID,0,VALID,95.2771,VALID,196.701,VALID,25.2844,VALID,163,VALID,0.552734,
2008-07-30, 08:46:04,VALID,1005.63,VALID,0,VALID,95.2084,VALID,202.031,VALID,25.263,VALID,163,VALID,0.309766,
2008-07-30, 08:47:04,VALID,1005.66,VALID,0,VALID,95.4068,VALID,204.344,VALID,25.3409,VALID,163,VALID,0.009375,
2008-07-30, 08:48:04,VALID,1005.67,VALID,0,VALID,95.3991,VALID,206.456,VALID,25.3818,VALID,163,VALID,0.0996094,
2008-07-30, 08:49:04,VALID,1005.64,VALID,0,VALID,95.2466,VALID,209.573,VALID,25.3993,VALID,163,VALID,0.397266,
2008-07-30, 08:50:04,VALID,1005.68,VALID,0,VALID,95.361,VALID,211.685,VALID,25.4188,VALID,163,VALID,0.241406,
2008-07-30, 08:51:04,VALID,1005.66,VALID,0,VALID,94.9872,VALID,211.685,VALID,25.4402,VALID,233,VALID,0.467969,
2008-07-30, 08:52:04,VALID,1005.68,VALID,0,VALID,94.7965,VALID,217.317,VALID,25.3818,VALID,238,VALID,0.182812,
2008-07-30, 08:53:04,VALID,1005.67,VALID,0,VALID,94.7354,VALID,229.384,VALID,25.3584,VALID,238,VALID,0.0210938,
2008-07-30, 08:54:04,VALID,1005.65,VALID,0,VALID,95.0101,VALID,237.53,VALID,25.4383,VALID,238,VALID,0.135937,
2008-07-30, 08:55:04,VALID,1005.67,VALID,0,VALID,94.6439,VALID,243.262,VALID,25.3779,VALID,204,VALID,0.536719,
2008-07-30, 08:56:04,VALID,1005.68,VALID,0,VALID,94.6744,VALID,242.86,VALID,25.3974,VALID,194,VALID,0.0277344,
2008-07-30, 08:57:04,VALID,1005.68,VALID,0,VALID,94.6057,VALID,243.061,VALID,25.4169,VALID,261,VALID,0.216797,
2008-07-30, 08:58:04,VALID,1005.69,VALID,0,VALID,93.5072,VALID,244.066,VALID,25.3604,VALID,300,VALID,0.688281,
2008-07-30, 08:59:04,VALID,1005.71,VALID,0,VALID,93.675,VALID,245.273,VALID,25.339,VALID,318,VALID,0.543359,
2008-07-30, 09:00:04,VALID,1005.7,VALID,0,VALID,94.1328,VALID,250.603,VALID,25.4363,VALID,323,VALID,0.115234,
2008-07-30, 09:01:04,VALID,1005.72,VALID,0,VALID,94.2396,VALID,254.625,VALID,25.5551,VALID,333,VALID,0.277344,
2008-07-30, 09:02:04,VALID,1005.7,VALID,0,VALID,94.2853,VALID,254.625,VALID,25.5921,VALID,333,VALID,0.0847656,
2008-07-30, 09:03:04,VALID,1005.7,VALID,0,VALID,93.881,VALID,249.899,VALID,25.6116,VALID,318,VALID,0.207813,
2008-07-30, 09:04:04,VALID,1005.72,VALID,0,VALID,94.0412,VALID,234.312,VALID,25.6506,VALID,307,VALID,0.270312,
2008-07-30, 09:05:04,VALID,1005.73,VALID,0,VALID,94.0183,VALID,223.753,VALID,25.7109,VALID,303,VALID,0.210938,
2008-07-30, 09:06:04,VALID,1005.7,VALID,0,VALID,93.553,VALID,218.121,VALID,25.7109,VALID,271,VALID,0.564844,
2008-07-30, 09:07:04,VALID,1005.7,VALID,0,VALID,93.4309,VALID,211.987,VALID,25.7519,VALID,276,VALID,0.221094,
2008-07-30, 09:08:04,VALID,1005.71,VALID,0,VALID,93.3699,VALID,207.864,VALID,25.748,VALID,271,VALID,0.284375,
2008-07-30, 09:09:04,VALID,1005.69,VALID,0,VALID,93.5606,VALID,207.26,VALID,25.8259,VALID,294,VALID,0.264062,
2008-07-30, 09:10:04,VALID,1005.7,VALID,0,VALID,92.3247,VALID,210.78,VALID,25.7869,VALID,347,VALID,0.691016,
2008-07-30, 09:11:04,VALID,1005.68,VALID,0,VALID,92.7901,VALID,214.3,VALID,25.8453,VALID,360,VALID,0.592578,
2008-07-30, 09:12:04,VALID,1005.67,VALID,0,VALID,93.3317,VALID,233.407,VALID,25.9232,VALID,360,VALID,0.0480469,
2008-07-30, 09:13:04,VALID,1005.63,VALID,0,VALID,93.9268,VALID,259.955,VALID,26.1005,VALID,296,VALID,0.0632813,
2008-07-30, 09:14:04,VALID,1005.61,VALID,0,VALID,93.9497,VALID,287.007,VALID,26.2369,VALID,281,VALID,0.349609,
2008-07-30, 09:15:04,VALID,1005.57,VALID,0,VALID,91.7831,VALID,310.438,VALID,26.1804,VALID,267,VALID,0.401953,
2008-07-30, 09:16:04,VALID,1005.57,VALID,0,VALID,92.5612,VALID,332.863,VALID,26.157,VALID,236,VALID,0.266016,
2008-07-30, 09:17:04,VALID,1005.57,VALID,0,VALID,90.6006,VALID,345.735,VALID,26.1765,VALID,270,VALID,0.306641,
2008-07-30, 09:18:04,VALID,1005.56,VALID,0,VALID,91.0583,VALID,356.998,VALID,26.2174,VALID,292,VALID,0.307813,
2008-07-30, 09:19:04,VALID,1005.55,VALID,0,VALID,91.5847,VALID,402.252,VALID,26.3148,VALID,318,VALID,0.180469,
2008-07-30, 09:20:04,VALID,1005.58,VALID,0,VALID,91.867,VALID,430.108,VALID,26.4512,VALID,319,VALID,0.208203,
2008-07-30, 09:21:04,VALID,1005.54,VALID,0,VALID,89.9216,VALID,421.057,VALID,26.4707,VALID,2,VALID,0.867578,
2008-07-30, 09:22:04,VALID,1005.55,VALID,0,VALID,90.3183,VALID,412.409,VALID,26.5486,VALID,3,VALID,0.2,
2008-07-30, 09:23:04,VALID,1005.58,VALID,0,VALID,89.9369,VALID,439.561,VALID,26.6265,VALID,314,VALID,0.442969,
2008-07-30, 09:24:04,VALID,1005.58,VALID,0,VALID,89.4334,VALID,443.483,VALID,26.7065,VALID,275,VALID,0.238672,
2008-07-30, 09:25:04,VALID,1005.54,VALID,0,VALID,89.0138,VALID,453.237,VALID,26.7219,VALID,274,VALID,0.134375,
2008-07-30, 09:26:04,VALID,1005.55,VALID,0,VALID,87.7321,VALID,460.075,VALID,26.7024,VALID,274,VALID,0.000390625,
2008-07-30, 09:27:04,VALID,1005.52,VALID,0,VALID,86.5039,VALID,496.379,VALID,26.7434,VALID,1,VALID,0.748828,
2008-07-30, 09:28:04,VALID,1005.52,VALID,0,VALID,87.5948,VALID,573.712,VALID,26.8214,VALID,284,VALID,0.549219,
2008-07-30, 09:29:04,VALID,1005.48,VALID,0,VALID,86.3818,VALID,1057.42,VALID,26.9383,VALID,269,VALID,0.821875,
2008-07-30, 09:30:04,VALID,1005.47,VALID,0,VALID,87.0379,VALID,858.104,VALID,27.0747,VALID,289,VALID,1.28594,
2008-07-30, 09:31:04,VALID,1005.43,VALID,0,VALID,84.2076,VALID,1027.75,VALID,27.2131,VALID,208,VALID,1.45859,
2008-07-30, 09:32:04,VALID,1005.4,VALID,0,VALID,88.1822,VALID,793.442,VALID,27.367,VALID,213,VALID,0.316797,
2008-07-30, 09:33:04,VALID,1005.35,VALID,0,VALID,83.5973,VALID,663.011,VALID,27.4449,VALID,286,VALID,1.02695,
2008-07-30, 09:34:04,VALID,1005.31,VALID,0,VALID,83.8185,VALID,917.235,VALID,27.5639,VALID,6,VALID,0.478125,
2008-07-30, 09:35:04,VALID,1005.31,VALID,0,VALID,85.0925,VALID,889.178,VALID,27.7762,VALID,179,VALID,0.701172,
2008-07-30, 09:36:04,VALID,1005.29,VALID,0,VALID,81.3773,VALID,855.489,VALID,27.8737,VALID,255,VALID,1.11133,
2008-07-30, 09:37:04,VALID,1005.3,VALID,0,VALID,79.882,VALID,852.372,VALID,27.8737,VALID,320,VALID,0.721875,
2008-07-30, 09:38:04,VALID,1005.27,VALID,0,VALID,81.5604,VALID,525.643,VALID,27.9516,VALID,7,VALID,0.442578,
2008-07-30, 09:39:04,VALID,1005.25,VALID,0,VALID,81.1026,VALID,390.888,VALID,28.0881,VALID,274,VALID,0.363672,
2008-07-30, 09:40:04,VALID,1005.29,VALID,0,VALID,80.0346,VALID,381.134,VALID,28.008,VALID,196,VALID,0.582812,
2008-07-30, 09:41:04,VALID,1005.27,VALID,0,VALID,79.6455,VALID,818.18,VALID,28.0491,VALID,257,VALID,0.658203,
2008-07-30, 09:42:04,VALID,1005.28,VALID,0,VALID,79.1191,VALID,519.106,VALID,28.1271,VALID,303,VALID,0.678125,
2008-07-30, 09:43:04,VALID,1005.26,VALID,0,VALID,80.6678,VALID,565.164,VALID,28.1877,VALID,261,VALID,0.736328,
2008-07-30, 09:44:04,VALID,1005.29,VALID,0,VALID,76.5634,VALID,708.164,VALID,28.1855,VALID,296,VALID,1.37344,
2008-07-30, 09:45:04,VALID,1005.23,VALID,0,VALID,80.0041,VALID,735.618,VALID,28.2462,VALID,279,VALID,0.417969,
2008-07-30, 09:46:04,VALID,1005.24,VALID,0,VALID,78.7911,VALID,743.663,VALID,28.4216,VALID,285,VALID,0.789453,
2008-07-30, 09:47:04,VALID,1005.23,VALID,0,VALID,78.135,VALID,799.375,VALID,28.5191,VALID,283,VALID,0.428125,
2008-07-30, 09:48:04,VALID,1005.26,VALID,0,VALID,76.3803,VALID,782.38,VALID,28.6945,VALID,319,VALID,0.651172,
2008-07-30, 09:49:04,VALID,1005.26,VALID,0,VALID,79.2946,VALID,735.819,VALID,28.7747,VALID,13,VALID,0.592188,
2008-07-30, 09:50:04,VALID,1005.27,VALID,0,VALID,75.4649,VALID,736.724,VALID,28.8895,VALID,282,VALID,0.969531,
2008-07-30, 09:51:04,VALID,1005.28,VALID,0,VALID,77.5476,VALID,552.392,VALID,29.0065,VALID,284,VALID,1.00117,
2008-07-30, 09:52:04,VALID,1005.27,VALID,0,VALID,75.7853,VALID,580.248,VALID,28.8895,VALID,268,VALID,0.600391,
2008-07-30, 09:53:04,VALID,1005.32,VALID,0,VALID,77.9748,VALID,458.165,VALID,28.948,VALID,228,VALID,0.776563,
2008-07-30, 09:54:04,VALID,1005.38,VALID,0,VALID,78.7911,VALID,418.442,VALID,29.026,VALID,227,VALID,0.287891,
2008-07-30, 09:55:04,VALID,1005.33,VALID,0,VALID,72.3752,VALID,442.578,VALID,29.0477,VALID,263,VALID,0.69375,
2008-07-30, 09:56:04,VALID,1005.33,VALID,0,VALID,74.1909,VALID,721.74,VALID,28.948,VALID,268,VALID,0.897266,
2008-07-30, 09:57:04,VALID,1005.32,VALID,0,VALID,74.1985,VALID,681.817,VALID,29.065,VALID,283,VALID,0.925781,
2008-07-30, 09:58:04,VALID,1005.31,VALID,0,VALID,72.7948,VALID,854.483,VALID,29.0628,VALID,292,VALID,0.876172,
2008-07-30, 09:59:04,VALID,1005.27,VALID,0,VALID,77.0593,VALID,983.908,VALID,29.2015,VALID,256,VALID,0.54375,
2008-07-30, 10:00:04,VALID,1005.26,VALID,0,VALID,72.0929,VALID,1020.61,VALID,29.299,VALID,188,VALID,0.733984,
2008-07-30, 10:01:04,VALID,1005.24,VALID,0,VALID,73.8857,VALID,803.397,VALID,29.2015,VALID,166,VALID,0.777734,
2008-07-30, 10:02:04,VALID,1005.29,VALID,0,VALID,78.2799,VALID,449.717,VALID,29.1798,VALID,208,VALID,0.805859,